Weather History for Staunton, VA

Change the Weather History Date:

Tuesday, February 12, 2013

  Actual Average Record
Temperature  
Mean Temperature 51 °F -  
Max Temperature 62 °F 47 °F 73 °F (1999)
Min Temperature 40 °F 26 °F 13 °F (2012)
Degree Days  
Heating Degree Days 14    
Growing Degree Days 1 (Base 50)    
Moisture  
Dew Point 18 °F    
Average Humidity 31    
Maximum Humidity 50    
Minimum Humidity 13    
Precipitation  
Precipitation 0.00 in - - ()
Sea Level Pressure  
Sea Level Pressure 29.94 in    
Wind  
Wind Speed 8 mph (WSW)    
Max Wind Speed 14 mph    
Max Gust Speed 24 mph    
Visibility 10 miles    
Events      
Averages and records for this station are not official NWS values.
T = Trace of Precipitation, MM = Missing Value Source: NWS Daily Summary

Daily Weather History Graph

Daily Weather History Graph

Search for Another Location

Airport:

Trip Planner

Search our weather history database for the weather conditions in past years. The results will help you decide how hot, cold, wet, or windy it might be!

Date:

Astronomy

Feb. 12, 2013 Rise Set
Actual Time 7:09 AM EST 5:50 PM EST
Civil Twilight 6:41 AM EST 6:18 PM EST
Nautical Twilight 6:10 AM EST 6:49 PM EST
Astronomical Twilight 5:40 AM EST 7:19 PM EST
Moon 8:08 AM EST (2/12) 8:46 PM EST (2/12)
Length of Visible Light 11h 36m
Length of Day
10h 41m
Waxing Crescent, 7% of the Moon is Illuminated
Feb 12
Waxing Crescent
Feb 17
First Quarter
Feb 25
Full
Mar 4
Last Quarter
Mar 11
New

Hourly Weather History & Observations

Time (EST) Temp. Windchill Dew Point Humidity Pressure Visibility Wind Dir Wind Speed Gust Speed Precip Events Conditions
12:15 AM 50.0 °F - 18.0 °F 28% 29.90 in 10.0 mi West 6.9 mph - N/A   Clear
12:35 AM 47.7 °F - 19.2 °F 32% 29.92 in 10.0 mi SW 8.1 mph - N/A   Clear
12:55 AM 49.1 °F - 20.3 °F 32% 29.93 in 10.0 mi West 13.8 mph 24.2 mph N/A   Clear
1:15 AM 48.6 °F - 20.3 °F 33% 29.93 in 10.0 mi West 12.7 mph 20.7 mph N/A   Clear
1:35 AM 47.7 °F - 21.2 °F 35% 29.93 in 10.0 mi West 9.2 mph 20.7 mph N/A   Clear
1:55 AM 46.4 °F 41.9 °F 21.7 °F 38% 29.93 in 10.0 mi WSW 9.2 mph - N/A   Clear
2:15 AM 45.3 °F 40.1 °F 22.8 °F 41% 29.93 in 10.0 mi WSW 10.4 mph - N/A   Clear
2:35 AM 44.8 °F 39.4 °F 23.5 °F 43% 29.93 in 10.0 mi WSW 10.4 mph - N/A   Clear
2:55 AM 44.8 °F 40.4 °F 23.5 °F 43% 29.93 in 10.0 mi West 8.1 mph - N/A   Clear
3:15 AM 43.9 °F 38.3 °F 23.9 °F 45% 29.94 in 10.0 mi WSW 10.4 mph - N/A   Clear
3:35 AM 44.6 °F 38.8 °F 23.9 °F 44% 29.94 in 10.0 mi West 11.5 mph - N/A   Clear
3:55 AM 44.2 °F 38.4 °F 23.9 °F 45% 29.94 in 10.0 mi West 11.5 mph - N/A   Clear
4:15 AM 44.1 °F 39.0 °F 23.9 °F 45% 29.94 in 10.0 mi West 9.2 mph 17.3 mph N/A   Clear
4:35 AM 43.3 °F 39.2 °F 23.9 °F 46% 29.94 in 10.0 mi WSW 6.9 mph - N/A   Clear
4:55 AM 41.9 °F 39.0 °F 23.7 °F 49% 29.93 in 10.0 mi SW 4.6 mph - N/A   Clear
5:15 AM 41.2 °F 36.6 °F 23.7 °F 50% 29.95 in 10.0 mi SW 6.9 mph - N/A   Clear
5:35 AM 41.4 °F 37.6 °F 23.0 °F 48% 29.95 in 10.0 mi SSW 5.8 mph - N/A   Clear
5:55 AM 40.3 °F 38.2 °F 22.8 °F 50% 29.95 in 10.0 mi SSW 3.5 mph - N/A   Clear
6:15 AM 40.5 °F 35.8 °F 23.0 °F 50% 29.95 in 10.0 mi SSW 6.9 mph - N/A   Clear
6:35 AM 41.2 °F 35.5 °F 22.8 °F 48% 29.95 in 10.0 mi SSW 9.2 mph - N/A   Clear
6:55 AM 40.6 °F 34.8 °F 22.3 °F 48% 29.95 in 10.0 mi South 9.2 mph - N/A   Clear
7:15 AM 41.4 °F 35.2 °F 21.9 °F 46% 29.96 in 10.0 mi SSW 10.4 mph - N/A   Clear
7:35 AM 41.5 °F 35.4 °F 21.4 °F 45% 29.96 in 10.0 mi SSW 10.4 mph - N/A   Clear
7:55 AM 43.2 °F 37.9 °F 20.3 °F 40% 29.96 in 10.0 mi South 9.2 mph 17.3 mph N/A   Clear
8:15 AM 44.1 °F 38.6 °F 20.5 °F 39% 29.96 in 10.0 mi SW 10.4 mph - N/A   Clear
8:35 AM 45.5 °F 39.6 °F 19.6 °F 36% 29.97 in 10.0 mi SW 12.7 mph 19.6 mph N/A   Clear
8:55 AM 47.1 °F - 19.6 °F 34% 29.98 in 10.0 mi SW 12.7 mph 19.6 mph N/A   Clear
9:15 AM 48.2 °F - 19.4 °F 32% 29.99 in 10.0 mi WSW 10.4 mph 20.7 mph N/A   Clear
9:35 AM 49.3 °F - 19.4 °F 31% 29.98 in 10.0 mi WSW 10.4 mph - N/A   Clear
9:55 AM 50.5 °F - 19.0 °F 29% 29.98 in 10.0 mi West 12.7 mph 16.1 mph N/A   Clear
10:15 AM 51.3 °F - 18.3 °F 27% 29.97 in 10.0 mi West 11.5 mph 17.3 mph N/A   Clear
10:35 AM 52.5 °F - 18.3 °F 26% 29.97 in 10.0 mi West 10.4 mph - N/A   Clear
10:55 AM 54.1 °F - 17.8 °F 24% 29.98 in 10.0 mi West 10.4 mph - N/A   Clear
11:15 AM 54.9 °F - 16.7 °F 22% 29.98 in 10.0 mi WNW 8.1 mph 16.1 mph N/A   Clear
11:35 AM 56.1 °F - 15.4 °F 20% 29.98 in 10.0 mi West 10.4 mph - N/A   Clear
11:55 AM 57.4 °F - 14.4 °F 18% 29.98 in 10.0 mi WSW 6.9 mph - N/A   Clear
12:15 PM 58.1 °F - 12.7 °F 17% 29.96 in 10.0 mi Calm Calm - N/A   Clear
12:35 PM 60.1 °F - 13.3 °F 16% 29.95 in 10.0 mi NNW 9.2 mph - N/A   Clear
12:55 PM 60.3 °F - 11.5 °F 15% 29.94 in 10.0 mi NNW 4.6 mph - N/A   Clear
1:15 PM 60.1 °F - 10.9 °F 14% 29.93 in 10.0 mi NNW 5.8 mph - N/A   Clear
1:35 PM 60.8 °F - 10.9 °F 14% 29.92 in 10.0 mi Calm Calm - N/A   Clear
1:55 PM 60.8 °F - 10.4 °F 14% 29.87 in 10.0 mi NNW 6.9 mph - N/A   Clear
2:15 PM 61.3 °F - 11.1 °F 14% 29.85 in 10.0 mi North 8.1 mph 17.3 mph N/A   Clear
2:35 PM 61.0 °F - 9.9 °F 13% 29.92 in 10.0 mi Calm Calm - N/A   Clear
2:55 PM 61.7 °F - 11.3 °F 14% 29.92 in 10.0 mi NNE 3.5 mph - N/A   Clear
3:15 PM 62.4 °F - 9.7 °F 13% 29.92 in 10.0 mi West 5.8 mph - N/A   Clear
3:35 PM 62.1 °F - 11.8 °F 14% 29.92 in 10.0 mi South 6.9 mph - N/A   Clear
3:55 PM 61.7 °F - 12.4 °F 15% 29.92 in 10.0 mi South 9.2 mph - N/A   Clear
4:15 PM 60.8 °F - 12.0 °F 15% 29.91 in 10.0 mi SE 4.6 mph - N/A   Clear
4:35 PM 59.4 °F - 15.3 °F 18% 29.91 in 10.0 mi SSE 3.5 mph - N/A   Clear
4:55 PM 58.3 °F - 15.6 °F 19% 29.92 in 10.0 mi SSW 8.1 mph - N/A   Clear
5:15 PM 57.0 °F - 16.2 °F 20% 29.93 in 10.0 mi SW 6.9 mph - N/A   Clear
5:35 PM 56.3 °F - 16.0 °F 21% 29.93 in 10.0 mi WSW 5.8 mph - N/A   Clear
5:55 PM 56.3 °F - 14.5 °F 19% 29.93 in 10.0 mi West 4.6 mph - N/A   Clear
6:15 PM 54.1 °F - 16.5 °F 23% 29.95 in 10.0 mi WNW 3.5 mph - N/A   Clear
6:35 PM 53.6 °F - 15.4 °F 22% 29.94 in 10.0 mi NW 5.8 mph - N/A   Clear
6:55 PM 53.4 °F - 12.4 °F 20% 29.93 in 10.0 mi NW 9.2 mph - N/A   Clear
7:15 PM 52.3 °F - 13.8 °F 22% 29.93 in 10.0 mi NNW 3.5 mph - N/A   Clear
7:35 PM 49.6 °F - 14.7 °F 25% 29.91 in 10.0 mi Calm Calm - N/A   Clear
7:55 PM 50.0 °F - 12.9 °F 23% 29.92 in 10.0 mi NNW 4.6 mph - N/A   Clear
8:15 PM 49.5 °F - 14.5 °F 25% 29.91 in 10.0 mi Calm Calm - N/A   Clear
8:35 PM 46.6 °F - 16.3 °F 30% 29.93 in 10.0 mi Calm Calm - N/A   Clear
9:15 PM 49.6 °F - 14.4 °F 24% 29.94 in 10.0 mi Calm Calm - N/A   Clear
9:35 PM 45.5 °F 43.2 °F 17.8 °F 33% 29.95 in 10.0 mi NW 4.6 mph - N/A   Clear
9:55 PM 45.0 °F - 18.7 °F 35% 29.96 in 10.0 mi Calm Calm - N/A   Clear
10:15 PM 44.1 °F - 18.0 °F 35% 29.96 in 10.0 mi Calm Calm - N/A   Clear
10:35 PM 43.7 °F - 21.0 °F 41% 29.95 in 10.0 mi Calm Calm - N/A   Clear
10:55 PM 42.1 °F - 22.3 °F 45% 29.95 in 10.0 mi Calm Calm - N/A   Clear
11:15 PM 42.3 °F - 22.3 °F 45% 29.94 in 10.0 mi Calm Calm - N/A   Clear
11:35 PM 41.5 °F - 22.1 °F 46% 29.93 in 10.0 mi Calm Calm - N/A   Clear
11:55 PM 41.5 °F - 21.6 °F 45% 29.93 in 10.0 mi Calm Calm - N/A   Clear